Overview Statistics Trail Chart Weather Telemetry Raw packets
 

This is the latest recevied weather packets stored in our database for station/object N2VUZ-1. If no packets are shown the sender has not sent any weather packets the latest 10 day(s).

<< 22 23 24 25 26 27 28 >>
Time Temp. Humidity Pressure Rain* Wind** Luminosity Snow
1788134961 26.11° C 74% 1018.5 hPa 0 mm - - -
1788134661 26.11° C 73% 1018.4 hPa 0 mm - - -
1788134361 26.11° C 71% 1018.4 hPa 0 mm - - -
1788134061 26.11° C 70% 1018.5 hPa 0 mm - - -
1788133761 26.11° C 69% 1018.3 hPa 0 mm - - -
1788133461 26.11° C 69% 1018.3 hPa 0 mm - - -
1788133161 26.11° C 69% 1018.4 hPa 0 mm - - -
1788132861 26.67° C 68% 1018.4 hPa 0 mm - - -
1788132561 26.67° C 68% 1018.4 hPa 0 mm - - -
1788132261 26.67° C 67% 1018.4 hPa 0 mm - - -
1788131961 27.22° C 66% 1018.3 hPa 0 mm - - -
1788131661 27.22° C 65% 1018.4 hPa 0 mm - - -
1788131361 27.22° C 65% 1018.4 hPa 0 mm - - -
1788131061 27.78° C 63% 1018.4 hPa 0 mm - - -
1788130761 27.78° C 63% 1018.3 hPa 0 mm - - -
1788130461 27.78° C 63% 1018.4 hPa 0 mm - - -
1788130161 27.78° C 62% 1018.4 hPa 0 mm - - -
1788129861 27.78° C 63% 1018.4 hPa 0 mm - - -
1788129561 27.78° C 64% 1018.4 hPa 0 mm - - -
1788129261 27.78° C 63% 1018.5 hPa 0 mm - - -
1788128961 27.78° C 64% 1018.5 hPa 0 mm - - -
1788128661 28.33° C 63% 1018.4 hPa 0 mm - - -
1788128361 28.33° C 61% 1018.6 hPa 0 mm - - -
1788128061 28.33° C 63% 1018.4 hPa 0 mm - - -
1788127761 28.33° C 66% 1018.2 hPa 0 mm - - -

* Rain latest hour (hover to see other rain measurements)
** Current wind speed in m/s (hover to see current wind gust speed)